Regional Weather Roundup
Issued by NWS Charleston, SC

Current Version | Previous Version | Text Only | Print | Product List | Glossary Off
Versions: 1 2 3 4 5 6 7 8 9 10 11 12 13 14 15 16 17 18 19 20 21 22 23 24 25 26 27 28 29 30 31 32 33 34 35 36 37 38 39 40 41 42 43 44 45 46 47 48 49 50

426
ASUS42 KCHS 261212
RWRCHS

REGIONAL WEATHER ROUNDUP
NATIONAL WEATHER SERVICE CHARLESTON SC
800 AM EDT TUE SEP 26 2017

NOTE: "FAIR" INDICATES FEW OR NO CLOUDS BELOW 12,000 FEET WITH NO
SIGNIFICANT WEATHER AND/OR OBSTRUCTIONS TO VISIBILITY.

NOT ALL STATIONS ARE QUALITY CONTROLLED. USE DATA WITH CAUTION...
ESPECIALLY DEWPOINT OBSERVATIONS.

SCZ027-030-031-034>040-042>050-261300-
...SOUTHEAST SOUTH CAROLINA...

CITY           SKY/WX    TMP DP  RH WIND       PRES   REMARKS
N CHARLESTON   PTCLDY    71  69  93 NW8       29.89R
6HR MIN TEMP:  70; 6HR MAX TEMP:  73;

WATERFRONT PRK   N/A     74  70  87 N5        29.72R
JOHNS ISLAND   FAIR      72  70  94 NW7       29.90R
PINOPOLIS        N/A     73  70  88 N10       29.82R
MONCKS CORNER  FAIR      72  68  88 N5        29.89R
SUMMERVILLE    FAIR      70  68  94 N3        29.91R
BEAUFORT MCAS  CLEAR     72  69  90 NW7       29.91R
6HR MIN TEMP:  71; 6HR MAX TEMP:  73;

BEAUFORT ARPT  FAIR      72  68  88 NW7       29.91R FOG
HILTON HEAD IS CLEAR     73  68  83 SW7       29.92R
WALTERBORO     SUNNY     68  66  94 NW3       29.93R
ALLENDALE      NOT AVBL

...SOUTHERN MIDLANDS AND PEE DEE...

CITY           SKY/WX    TMP DP  RH WIND       PRES   REMARKS
GEORGETOWN     CLOUDY    70  68  94 NW10      29.88R
KINGSTREE      PTSUNNY   68  68 100 NW6       29.90R
ORANGEBURG     CLEAR     70  65  84 N3        29.92R
6HR MIN TEMP:  68; 6HR MAX TEMP:  74;

BARNWELL       FAIR      70  68  94 NW3       29.94R
AIKEN          FAIR      66  64  94 N5        29.98S
MANNING        FAIR      70  64  83 MISG      29.91R
COLUMBIA       PTCLDY    72  64  76 N5        29.93R
6HR MIN TEMP:  72; 6HR MAX TEMP:  77;

SUMTER         MOCLDY    71  64  78 N13       29.90R
6HR MIN TEMP:  70; 6HR MAX TEMP:  72;

FLORENCE       CLOUDY    70  67  90 N10       29.91R
6HR MIN TEMP:  70; 6HR MAX TEMP:  72;

MYRTLE BEACH   NOT AVBL
N MYRTLE BEACH CLOUDY    73  70  90 N12G21    29.84R
6HR MIN TEMP:  73; 6HR MAX TEMP:  74;


$$

GAZ063-065-086>088-099>101-113>116-118-119-134>141-150-261300-
...SOUTHEAST GEORGIA...

CITY           SKY/WX    TMP DP  RH WIND       PRES   REMARKS
SAVANNAH ARPT  PTCLDY    70  67  90 N5        29.93R
6HR MIN TEMP:  68; 6HR MAX TEMP:  71;

HUNTER AAF     NOT AVBL
FORT STEWART   CLEAR     68  65  90 CALM      29.91R
6HR MIN TEMP:  67; 6HR MAX TEMP:  69;

STATESBORO     CLEAR     67  67 100 CALM      29.94R
SYLVANIA       SUNNY     66  66 100 CALM      29.94S
CLAXTON        FAIR      67  66  97 CALM      29.94R

...CSRA...CENTRAL AND FAR SOUTHEAST GEORGIA...

CITY           SKY/WX    TMP DP  RH WIND       PRES   REMARKS
THOMSON        CLEAR     63  61  95 CALM      30.02R
AUGUSTA-BUSH   CLEAR     66  63  90 NW6       29.95R
AUGUSTA-DANIEL CLEAR     71  65  81 N8        29.96R
SWAINSBORO     FAIR      64  64 100 NW3       29.96R
VIDALIA        CLEAR     68  66  94 CALM      29.95S
EASTMAN        FAIR      63  62  98 CALM      29.99R FOG
HAZLEHURST     FAIR      66  64  94 CALM      29.94S
ALMA           CLEAR     66  64  93 CALM      29.94R
6HR MIN TEMP:  64; 6HR MAX TEMP:  67;

WAYCROSS       CLEAR     68  65  90 CALM      29.93S
JESUP          NOT AVBL
BAXLEY         FAIR      63  63 100 CALM      29.94S
BRUNSWICK      PTCLDY    70  66  88 W5        29.93R
SAINT SIMONS   CLEAR     73  71  93 NW3       29.91R
6HR MIN TEMP:  72; 6HR MAX TEMP:  75;


$$

SCZ027-028-034-036>038-045-046-048>050-GAZ119-141-261300-
...LAKE AND SUPPLEMENTAL COASTAL OBSERVATIONS...

STATION/POSITION TIME  TEMP    WIND        PRES    WAVE   SWELL
                       AIR SEA DIR/SP/G            HT/PER HT/PER/DIR
                 (UTC) (F)     (DEG/KT/KT) (MB)    (FT/S) (FT/S/D)
WINYAH BAY       NOT AVBL
LAKE MURRAY      1120   69     320/  1/  4 1013.2R
ACE BASIN NERRS  1045   70     320/  1     1012.0
FORT PULASKI     1148   71 80  330/  7/  8 1013.3R
SAPELO ISLAND    1100   72        CALM     1013.0

$$

ANZ835-935-AMZ111-154-330-350-352-354-370-450-454-472-261300-
...C-MAN AND BUOY OBSERVATIONS...

STATION/POSITION TIME  TEMP    WIND        PRES    WAVE   SWELL
                       AIR SEA DIR/SP/G            HT/PER HT/PER/DIR
                 (UTC) (F)     (DEG/KT/KT) (MB)    (FT/S) (FT/S/D)
BUOY 41004       1150   76 81  350/ 14/ 17 1010.6R   6/11   5/ 90/11
BUOY 41008       1150   76 80  330/ 10/ 12 1012.2R   4/12   3/ 70/12
FOLLY BEACH CMAN 1100   73     330/  6/  8 1011.9R
CAPERS NEARSHORE 1108   72 80  360/ 16/ 21 1010.6
FRIPP NEARSHORE  1108   74     340/ 10/ 14 1017.7R


STATION/POSITION TIME  TEMP    WIND        PRES    WAVE   SWELL
                       AIR SEA DIR/SP/G            HT/PER HT/PER/DIR
                 (UTC) (F)     (DEG/KT/KT) (MB)    (FT/S) (FT/S/D)
5E ST. MARYS GA  1130      81                N/A     4/13   2/ 80/13
FRYING PAN BUOY  1150   76 81  340/ 23/ 31 1008.1S  11/13   8/120/13
BUOY 41025       1150   77 79   20/ 31/ 41 1002.9R  20/13  18/140/13
CAPE LOOKOUT NC  1100   76     350/ 23/ 31 1006.2R
BUOY 41002       1150   80 81  290/ 31/ 39  998.3R  14/ 9
BUOY 41010       1150          310/ 12/ 14 1011.2R   8/11   7/11
ST AUGUSTINE FL  1200   74 81  300/  4/  5 1013.1R


$$




USA.gov is the U.S. government's official web portal to all federal, state and local government web resources and services.